Previsão horária em Al-Kunajtira

Hoje, 23 Janeiro, Sábado

Tempo Temperatura Precipitação Vento Pressão Humidade
00:00 +4°C° 0 mm 2 m/s 742 mmHg 61%
01:00 +4°C° 0 mm 2 m/s 742 mmHg 62%
02:00 +3°C° 0 mm 2 m/s 741 mmHg 63%
03:00 +3°C° 0 mm 2 m/s 741 mmHg 63%
04:00 +3°C° 0 mm 2 m/s 741 mmHg 63%
05:00 +3°C° 0 mm 2 m/s 741 mmHg 63%
06:00 +3°C° 0 mm 2 m/s 741 mmHg 62%
07:00 +3°C° 0 mm 2 m/s 741 mmHg 61%
08:00 +4°C° 0 mm 2 m/s 742 mmHg 61%
09:00 +5°C° 0 mm 2 m/s 741 mmHg 57%
10:00 +5°C° 0 mm 3 m/s 741 mmHg 53%
11:00 +8°C° 0 mm 3 m/s 741 mmHg 49%
12:00 +9°C° 0 mm 3 m/s 741 mmHg 47%
13:00 +9°C° 0 mm 3 m/s 740 mmHg 46%
14:00 +10°C° 0 mm 4 m/s 739 mmHg 44%
15:00 +8°C° 0 mm 4 m/s 740 mmHg 48%
16:00 +7°C° 0 mm 4 m/s 740 mmHg 52%
17:00 +7°C° 0 mm 3 m/s 740 mmHg 56%
18:00 +5°C° 0 mm 3 m/s 740 mmHg 57%
19:00 +5°C° 0 mm 3 m/s 740 mmHg 59%
20:00 +4°C° 0 mm 3 m/s 740 mmHg 60%
21:00 +4°C° 0 mm 3 m/s 740 mmHg 61%
22:00 +3°C° 0 mm 3 m/s 740 mmHg 62%
23:00 +4°C° 0 mm 2 m/s 740 mmHg 63%

Amanhã, 24 Janeiro, Domingo

Tempo Temperatura Precipitação Vento Pressão Humidade
00:00 +4°C° 0 mm 2 m/s 740 mmHg 64%
01:00 +4°C° 0 mm 2 m/s 740 mmHg 64%
02:00 +3°C° 0 mm 2 m/s 740 mmHg 65%
03:00 +3°C° 0 mm 2 m/s 739 mmHg 65%
04:00 +3°C° 0 mm 2 m/s 739 mmHg 65%
05:00 +3°C° 0 mm 2 m/s 739 mmHg 65%
06:00 +3°C° 0 mm 2 m/s 740 mmHg 64%
07:00 +4°C° 0 mm 2 m/s 740 mmHg 63%
08:00 +4°C° 0 mm 2 m/s 740 mmHg 62%
09:00 +4°C° 0 mm 3 m/s 740 mmHg 57%
10:00 +7°C° 0 mm 3 m/s 740 mmHg 53%
11:00 +7°C° 0 mm 4 m/s 740 mmHg 48%
12:00 +9°C° 0 mm 3 m/s 740 mmHg 47%
13:00 +10°C° 0 mm 3 m/s 739 mmHg 45%
14:00 +11°C° 0 mm 3 m/s 739 mmHg 44%
15:00 +10°C° 0 mm 3 m/s 739 mmHg 48%
16:00 +9°C° 0 mm 3 m/s 739 mmHg 52%
17:00 +8°C° 0 mm 2 m/s 739 mmHg 56%
18:00 +7°C° 0 mm 2 m/s 739 mmHg 57%
19:00 +7°C° 0 mm 2 m/s 739 mmHg 58%
20:00 +6°C° 0 mm 2 m/s 740 mmHg 59%
21:00 +6°C° 0 mm 2 m/s 740 mmHg 60%
22:00 +5°C° 0 mm 2 m/s 740 mmHg 61%
23:00 +5°C° 0 mm 2 m/s 739 mmHg 62%

Depois de amanhã, 25 Janeiro, Segunda-feira

Tempo Temperatura Precipitação Vento Pressão Humidade
00:00 +5°C° 0 mm 2 m/s 739 mmHg 62%
01:00 +4°C° 0 mm 2 m/s 739 mmHg 63%
02:00 +4°C° 0 mm 2 m/s 739 mmHg 64%
03:00 +4°C° 0 mm 2 m/s 739 mmHg 64%
04:00 +3°C° 0 mm 2 m/s 739 mmHg 65%
05:00 +3°C° 0 mm 2 m/s 739 mmHg 65%
06:00 +4°C° 0 mm 2 m/s 739 mmHg 64%
07:00 +4°C° 0 mm 2 m/s 739 mmHg 63%
08:00 +5°C° 0 mm 2 m/s 740 mmHg 63%
09:00 +6°C° 0 mm 2 m/s 740 mmHg 58%
10:00 +8°C° 0 mm 2 m/s 740 mmHg 53%
11:00 +9°C° 0 mm 2 m/s 740 mmHg 49%
12:00 +10°C° 0 mm 2 m/s 739 mmHg 47%
13:00 +12°C° 0 mm 2 m/s 739 mmHg 45%
14:00 +13°C° 0 mm 2 m/s 739 mmHg 44%
15:00 +12°C° 0 mm 2 m/s 739 mmHg 48%
16:00 +10°C° 0 mm 1 m/s 739 mmHg 52%
17:00 +9°C° 0 mm 1 m/s 739 mmHg 56%
18:00 +9°C° 0 mm 1 m/s 739 mmHg 57%
19:00 +9°C° 0 mm 1 m/s 739 mmHg 58%
20:00 +8°C° 0 mm 1 m/s 740 mmHg 59%
21:00 +8°C° 0 mm 1 m/s 740 mmHg 60%
22:00 +7°C° 0 mm 2 m/s 740 mmHg 61%
23:00 +6°C° 0 mm 2 m/s 740 mmHg 61%

26 Janeiro, Terça-feira

Tempo Temperatura Precipitação Vento Pressão Humidade
00:00 +6°C° 0 mm 2 m/s 740 mmHg 62%
01:00 +7°C° 0 mm 1 m/s 739 mmHg 63%
02:00 +7°C° 0 mm 1 m/s 739 mmHg 63%
03:00 +7°C° 0 mm 1 m/s 739 mmHg 63%
04:00 +6°C° 0 mm 1 m/s 739 mmHg 63%
05:00 +6°C° 0 mm 1 m/s 739 mmHg 64%
06:00 +7°C° 0 mm 1 m/s 739 mmHg 63%
07:00 +6°C° 0 mm 2 m/s 739 mmHg 63%
08:00 +6°C° 0 mm 2 m/s 740 mmHg 63%
09:00 +8°C° 0 mm 2 m/s 740 mmHg 58%
10:00 +9°C° 0 mm 2 m/s 739 mmHg 54%
11:00 +10°C° 0 mm 2 m/s 739 mmHg 49%
12:00 +11°C° 0 mm 3 m/s 739 mmHg 48%
13:00 +12°C° 0 mm 3 m/s 738 mmHg 46%
14:00 +13°C° 0 mm 3 m/s 738 mmHg 44%
15:00 +13°C° 0 mm 2 m/s 738 mmHg 48%
16:00 +12°C° 0 mm 2 m/s 738 mmHg 51%
17:00 +10°C° 0 mm 2 m/s 738 mmHg 54%
18:00 +10°C° 0 mm 2 m/s 738 mmHg 55%
19:00 +10°C° 0 mm 2 m/s 738 mmHg 56%
20:00 +9°C° 0 mm 2 m/s 738 mmHg 56%
21:00 +9°C° 0 mm 3 m/s 737 mmHg 58%
22:00 +9°C° 0 mm 3 m/s 737 mmHg 59%
23:00 +9°C° 0 mm 3 m/s 737 mmHg 60%

27 Janeiro, Quarta-feira

Tempo Temperatura Precipitação Vento Pressão Humidade
00:00 +8°C° 0 mm 3 m/s 736 mmHg 61%
01:00 +8°C° 0 mm 3 m/s 736 mmHg 62%
02:00 +8°C° 0 mm 3 m/s 735 mmHg 63%
03:00 +7°C° 0 mm 3 m/s 735 mmHg 64%
04:00 +7°C° 0 mm 3 m/s 734 mmHg 65%
05:00 +7°C° 0 mm 3 m/s 733 mmHg 66%
06:00 +7°C° 0 mm 3 m/s 733 mmHg 65%
07:00 +7°C° 0 mm 3 m/s 733 mmHg 65%
08:00 +7°C° 0 mm 3 m/s 733 mmHg 65%
09:00 +8°C° 0 mm 4 m/s 732 mmHg 60%
10:00 +10°C° 0 mm 4 m/s 732 mmHg 56%
11:00 +12°C° 0 mm 4 m/s 731 mmHg 51%
12:00 +13°C° 0 mm 4 m/s 731 mmHg 49%
13:00 +13°C° 0 mm 3 m/s 730 mmHg 47%
14:00 +14°C° 0 mm 3 m/s 729 mmHg 44%
15:00 +14°C° 0 mm 2 m/s 729 mmHg 48%
16:00 +13°C° 0 mm 2 m/s 728 mmHg 52%
17:00 +12°C° 0 mm 1 m/s 728 mmHg 57%
18:00 +12°C° 1.1 mm 2 m/s 728 mmHg 66%
19:00 +11°C° 1.1 mm 3 m/s 728 mmHg 76%
20:00 +9°C° 1.1 mm 5 m/s 727 mmHg 86%
21:00 +9°C° 0.7 mm 5 m/s 727 mmHg 85%
22:00 +10°C° 0.7 mm 6 m/s 727 mmHg 85%
23:00 +10°C° 0.7 mm 7 m/s 727 mmHg 84%

28 Janeiro, Quinta-feira

Tempo Temperatura Precipitação Vento Pressão Humidade
00:00 +10°C° 0.1 mm 6 m/s 728 mmHg 84%
01:00 +9°C° 0.1 mm 5 m/s 728 mmHg 83%
02:00 +10°C° 0.1 mm 4 m/s 728 mmHg 83%
03:00 +10°C° 0.2 mm 4 m/s 728 mmHg 83%
04:00 +8°C° 0.2 mm 4 m/s 727 mmHg 83%
05:00 +9°C° 0.2 mm 3 m/s 727 mmHg 83%
06:00 +8°C° 0.5 mm 4 m/s 727 mmHg 83%
07:00 +8°C° 0.5 mm 5 m/s 728 mmHg 83%
08:00 +9°C° 0.5 mm 5 m/s 728 mmHg 82%
09:00 +9°C° 0.4 mm 7 m/s 728 mmHg 75%
10:00 +10°C° 0.4 mm 8 m/s 728 mmHg 68%
11:00 +11°C° 0.4 mm 9 m/s 728 mmHg 61%
12:00 +11°C° 0.1 mm 9 m/s 728 mmHg 59%
13:00 +9°C° 0.1 mm 10 m/s 728 mmHg 57%
14:00 +9°C° 0.1 mm 11 m/s 728 mmHg 55%
15:00 +8°C° 0.1 mm 10 m/s 728 mmHg 61%
16:00 +7°C° 0.1 mm 8 m/s 728 mmHg 68%
17:00 +6°C° 0.1 mm 7 m/s 728 mmHg 74%
18:00 +6°C° 0.1 mm 7 m/s 729 mmHg 73%
19:00 +5°C° 0.1 mm 7 m/s 729 mmHg 72%
20:00 +5°C° 0.1 mm 6 m/s 729 mmHg 71%
Mostrar mais

Necessitamos do seu Consentimento

A Meteoprog e os seus Fornecedores de Serviços podem armazenar e aceder a dados pessoais como cookies, identificadores do dispositivo ou outras tecnologias semelhantes existentes no seu dispositivo e processar estes dados para personalizar conteúdos e anúncios, assim como funcionalidades nas redes sociais e análise de tráfego.

  • Armazenar e/ou aceder a informações no seu dispositivo

    Os cookies, identificadores do dispositivo ou outras informações podem ser armazenados ou acedidos no seu dispositivo, para os fins acima indicados.

  • Anúncios e conteúdos personalizados, medição de anúncios e conteúdos, dados sobre o público-alvo e desenvolvimento de produtos

    Os anúncios e os conteúdos podem ser personalizados com base num perfil. Podem ser adicionados dados adicionais para uma maior personalização dos anúncios e dos conteúdos. A eficácia dos anúncios e dos conteúdos pode ser medida. Podem ser obtidas informações sobre o público que visualizou os anúncios e os conteúdos. Estes dados podem ser usados para desenvolver ou melhorar sistemas, softwares ou a experiência do utilizador.

Ao clicar em "Eu concordo”, permitirá o uso de cookies, identificadores do dispositivo e web beacons mencionados ou outras tecnologias semelhantes. As configurações do navegador do seu dispositivo podem ser alteradas.

Para certos fins, podem ser invocados interesses legítimos ao invés de consentimento. Pode ler mais informação sobre este assunto na nossa Política de Privacidade e Cookies.